Weather in Akhaltsikhe

Georgia     41˚38′42″N   42˚59′42″E
temp.,
°C
wind,
m/s
gust,
m/s
humid.,
%
clouds,
%
prec.,
mm/h
press.,
hPa
HPBL,
m
28 november, sat
sat2801:00−6˚ssw11730 0.0 103223
04:00−7˚ssw11720 0.0 103125
07:00−8˚sw11710 0.0 103026
10:00−5˚ssw11680 0.0 102990
13:00s12590 0.0 1027181
16:00+1˚ssw11630 0.0 102590
19:00−4˚sw116039 0.0 102722
22:00−5˚wsw116245 0.0 102823
29 november, sun
sun2901:00−5˚w116373 0.0 102823
04:00−5˚wnw116759 0.0 102822
07:00−5˚w11690 0.0 102722
10:00−2˚sw11680 0.0 102789
13:00+2˚ssw11690 0.0 1024152
16:00+3˚ssw017710 0.0 102367
19:00−1˚wnw117299 0.0 102422
22:00−2˚wnw0179100 0.0 102421
30 november, mon
mon3001:00−3˚w0182100 0.0 102422
04:00−4˚wsw018284 0.0 102422
07:00−4˚wsw01760 0.0 102323
10:00−1˚sw11730 0.0 102391
13:00+2˚ssw11670 0.0 1020186
16:00+3˚wsw01700 0.0 101983
19:00−2˚ssw11720 0.0 102122
22:00−3˚s11790 0.0 102123
1 december, tue
tue101:00−4˚sw11810 0.0 102223
04:00−4˚sw11841 0.0 102224
07:00−5˚sw118720 0.0 102225
10:00−2˚ssw118349 0.0 102295
13:00+2˚s127291 0.0 1020246
16:00+1˚sw017796 0.0 102072
19:00−2˚sw0179100 0.0 102222
22:00−2˚ssw1182100 0.0 102323
2 december, wed
wed201:00−3˚ssw0182100 0.0 102423
04:00−4˚sw118484 0.0 102424
07:00−3˚sw118499 0.0 102425
10:00−1˚sw1180100 0.0 102478
13:00+2˚s117196 0.0 1022208
16:00+3˚wsw017383 0.0 102182
19:00−1˚nw007330 0.0 102322
22:00−2˚w007921 0.0 102422